Location: Mesa Verde
(33.6055°N, 114.7275°W)
Time: 12:14:02
(UTC+00:00)

ISS - Pass Details

Date: 04 October 2021
Orbit: 417 x 423 km, 51.6° (Epoch: 26 October)

Event Time Altitude Azimuth Distance (km) Brightness Sun altitude
Rises 03:41:34 0° 311° (NW) 2,362 1.0 -30.0°
Reaches altitude 10° 03:43:41 10° 308° (NW) 1,497 -0.2 -30.5°
Enters shadow 03:44:03 13° 307° (NW) 1,346 -0.5 -30.5°
